Regional Weather Roundup
Issued by NWS

Home | Current Version | Previous Version | Graphics & Text | Print | Product List | Glossary On
Versions: 1 2 3 4 5 6 7 8 9 10 11 12 13 14 15 16 17 18 19 20 21 22 23 24 25 26 27 28 29 30 31 32 33 34 35 36 37 38 39 40 41 42 43 44 45 46 47 48 49 50
000
ASUS43 KDTX 032201
RWRMI
MICHIGAN HOURLY REGIONAL WEATHER ROUNDUP
NATIONAL WEATHER SERVICE DETROIT/PONTIAC MI
600 PM EDT FRI JUL 03 2015

NOTE: "FAIR" INDICATES FEW OR NO CLOUDS BELOW 12,000 FEET WITH NO
SIGNIFICANT WEATHER AND/OR OBSTRUCTION TO VISIBILITY.

MIZ047>049-052>055-059>063-066>070-074>076-081>083-032300-
SOUTHEAST LOWER MICHIGAN

CITY           SKY/WX    TMP DP  RH WIND       PRES   REMARKS
ADRIAN         MOSUNNY   73  55  53 VRB6      29.93F
ALMA           SUNNY     74  44  33 NW5       29.94F
ANN ARBOR      MOSUNNY   75  56  51 CALM      29.92F
BAD AXE        MOSUNNY   71  46  40 W5        29.94F
CARO           MOSUNNY   73  50  43 NW3       29.93F
DETROIT CITY   CLOUDY    71  54  54 E7        29.93F
DETROIT        PTSUNNY   74  56  53 SE8       29.93F
FLINT          PTSUNNY   75  45  34 VRB3      29.93F
GROSSE ILE     PTSUNNY   72  54  53 S5        29.92F
HILLSDALE      MOSUNNY   74  53  48 N5        29.94F
HOWELL         MOSUNNY   72  50  45 CALM      29.94F

CITY           SKY/WX    TMP DP  RH WIND       PRES   REMARKS
JACKSON        SUNNY     73  52  47 N6        29.94F
LAMBERTVILLE   MOSUNNY   73  54  50 E6        29.94S
LANSING        SUNNY     76  50  40 N5        29.93F
LAPEER         FAIR      74  48  40 N3        29.94F
MASON          SUNNY     70  53  54 S3        29.93F
MONROE         PTSUNNY   71  56  58 E5        29.92F
MT. CLEMENS    PTSUNNY   72  55  56 E6        29.92F
PONTIAC        PTSUNNY   74  49  41 N5        29.93F
PORT HOPE        N/A     64  51  62 E8        29.94F
PORT HURON     PTSUNNY   72  55  56 CALM      29.94S
TRI CITIES     MOSUNNY   76  44  32 N7        29.94F
MIDLAND        FAIR      74  41  31 CALM      29.93F
TROY           PTSUNNY   75  54  47 E7        29.94F
SAGINAW HB     MOSUNNY   73  41  31 CALM      29.93F
$$
MIZ043>046-050>051-056>058-064>065-071>073-077>080-032300-
SOUTHWEST LOWER MICHIGAN

CITY           SKY/WX    TMP DP  RH WIND       PRES   REMARKS
BATTLE CREEK   SUNNY     76  53  44 N6        29.94S
BENTON HARBOR  SUNNY     70  54  56 VRB7      29.93F
BIG RAPIDS     SUNNY     74  45  35 CALM      29.93F
COLDWATER      MOSUNNY   73  53  49 N3        29.93S
FREMONT        FAIR      75  41  29 W5        29.93F
HOLLAND        SUNNY     72  53  51 NW10      29.95S
GRAND RAPIDS   PTSUNNY   75  46  35 E3        29.93F
IONIA          FAIR      74  50  43 NE5       29.93F
KALAMAZOO      SUNNY     76  52  43 NE3       29.93F
LUDINGTON      SUNNY     71  55  56 SW7       29.95F
MARSHALL       SUNNY     73  54  49 CALM      29.93F
MOUNT PLEASANT SUNNY     74  46  36 E3        29.94F
MUSKEGON       MOSUNNY   71  48  43 NW10      29.94F
SOUTH HAVEN    SUNNY     70  54  56 N9        29.94S
$$
MIZ016>042-032300-
NORTHERN LOWER MICHIGAN

CITY           SKY/WX    TMP DP  RH WIND       PRES   REMARKS
ALPENA         SUNNY     77  50  38 S12       29.91F
BEAVER ISLAND  PTSUNNY   66  50  56 SW10G18   29.90F
BELLAIRE       MOSUNNY   74  50  41 W6        29.92S
CADILLAC       SUNNY     74  53  48 SW6       29.93F
CHARLEVOIX     PTSUNNY   70  53  53 SW8       29.94S
FRANKFORT      MOSUNNY   70  42  36 SW7       29.93F
GAYLORD        MOSUNNY   73  53  49 W9        29.93F
GRAYLING       MOSUNNY   74  53  47 SW3       29.94S
HARBOR SPRINGS MOSUNNY   71  53  53 W7        29.91F
HOUGHTON LAKE  SUNNY     74  50  42 CALM      29.94F
MANISTEE       MOSUNNY   70  46  43 W8        29.94F
OSCODA         SUNNY     72  42  33 S7        29.93F
PELLSTON       PTSUNNY   71  52  50 W9        29.91F
ROGERS CITY    MOSUNNY   70  55  58 NE5       29.91S
TRAVERSE CITY  CLOUDY    75  51  43 SW8       29.90F
$$
MIZ007>008-015-032300-
EASTERN UPPER MICHIGAN

CITY           SKY/WX    TMP DP  RH WIND       PRES   REMARKS
KINROSS        CLOUDY    66  54  63 SW7       29.90R
MACKINAC ISLAN PTSUNNY   65  53  66 SW10G20   29.90S
NEWBERRY       CLOUDY    61  57  88 S12       29.89R
S. S. MARIE    CLOUDY    68  55  63 SW9       29.87S
MUNISING         N/A     69  61  75 S7        29.83F
$$
MIZ004>006-011>014-085-032300-
CENTRAL UPPER MICHIGAN

CITY           SKY/WX    TMP DP  RH WIND       PRES   REMARKS
MANISTIQUE     CLOUDY    58  52  79 S6        29.88S
ESCANABA       PTSUNNY   72  61  68 S10G17    29.85F
MENOMINEE      PTSUNNY   73  52  46 W8        29.87F
SAWYER-GWINN   PTSUNNY   73  55  53 SW13      29.85F
$$
MIZ001>003-009>011-084-032300-
WESTERN UPPER MICHIGAN

CITY           SKY/WX    TMP DP  RH WIND       PRES   REMARKS
IRON MOUNTAIN  PTSUNNY   74  57  55 SW7       29.86S
HOUGHTON       MOSUNNY   73  59  61 W18       29.83S
COPPER HARBOR    N/A     64  55  72 N13       29.82R
IRONWOOD       SUNNY     75  63  64 W10       29.84S
$$

ABBREVIATIONS USED IN REMARKS
   TC - TEMPERATURE IN CELSIUS
  WCI - WIND CHILL INDEX
   HX - HEAT INDEX
  VSB - VISIBILITY



USA.gov is the U.S. government's official web portal to all federal, state and local government web resources and services.